Content
SEND FEEDBACK

Daily
Averages
Monthly
Summary
United States of America

WARSAW, VIRGINIA


Home > North America > United States > Virginia
Elevation: 125 feet     Latitude: 37 59N     Longitude: 076 46W

WEATHER
 
SELECT A DAY
Number of Records: 165,176;   Date Range: 3/25/08 - 12/19/14
 
SHARE

PRINT THIS DATA

[ ← Previous Day ]
WEATHER ALMANAC - JANUARY 31, 2013
[ Next Day → ]
[ °C ]   °F
Weather ElementAverageHighLow
Temperature47.7 °F69.1 °F (1:15 am)32.2 °F (10:35 pm)
Dewpoint27.5 °F61.9 °F (1:55 am)12.9 °F (6:55 pm)
Humidity48.4 %96 % (1:55 am)28 % (12:55 pm)
Barometer29.65 in29.96 in (11:15 pm)29.21 in (1:15 am)
Wind Speed13.5 mph24.2 mph (8:35 am)
Wind Gust36.8 mph (6:35 am)
Weather ElementAverage
Visibility9.7 mi
Wind DirectionWSW (237.3 °)

Weather ElementTotal
Precipitation---
Heating Degree Days14.4 (Base 65)
Growing Degree Days0.6 (Base 50)
Averaged from 71 records on January 31, 2013
WEATHER CONDITIONS BREAKOUT
WIND DIRECTION BREAKOUT
WEATHER BY HOUR - JANUARY 31, 2013
[ °C ]   °F
Local TimeTemperatureDewpointHumidityBarometerVisibilityWind DirectionWind SpeedGust SpeedPrecipitationEventsConditions
12:35 AM67.8 °F60.3 °F77 %29.26 in10.0 miSSE (160°)20.7 mph33.4 mphRainLight Rain
12:55 AM68.7 °F59.9 °F73 %29.24 in10.0 miSSE (160°)20.7 mph28.8 mphOvercast
1:15 AM69.1 °F59.7 °F72 %29.21 in10.0 miSSE (160°)16.1 mph29.9 mphRainLight Rain
1:35 AM68.0 °F60.4 °F77 %29.24 in7.0 miSSW (200°)21.9 mph29.9 mphRainRain
1:55 AM63.0 °F61.9 °F96 %29.28 in3.0 miSW (220°)16.1 mph29.9 mphRainHeavy Rain
2:15 AM60.8 °F59.5 °F96 %29.30 in5.0 miWSW (250°)15.0 mph35.7 mphRainRain
2:35 AM58.8 °F57.6 °F96 %29.31 in5.0 miWSW (240°)20.7 mph27.6 mphRainRain
2:55 AM57.4 °F56.1 °F96 %29.32 in10.0 miSW (220°)11.5 mph19.6 mphRainLight Rain
3:15 AM57.2 °F55.4 °F94 %29.30 in10.0 miSSW (210°)8.1 mphRainLight Rain
3:35 AM57.0 °F54.5 °F91 %29.31 in7.0 miSW (220°)12.7 mph23.0 mphRainLight Rain
3:55 AM56.5 °F52.9 °F88 %29.29 in10.0 miSW (220°)10.4 mph19.6 mphRainLight Rain
4:15 AM56.5 °F52.2 °F85 %29.32 in10.0 miSW (220°)16.1 mph21.9 mphOvercast
4:35 AM56.5 °F50.9 °F82 %29.32 in10.0 miSW (220°)16.1 mph21.9 mphOvercast
4:55 AM56.3 °F48.2 °F74 %29.34 in10.0 miSW (220°)15.0 mph24.2 mphOvercast
5:15 AM55.4 °F46.2 °F71 %29.36 in10.0 miSW (230°)16.1 mph28.8 mphMostly Cloudy
5:35 AM54.9 °F43.7 °F66 %29.38 in10.0 miWSW (240°)15.0 mph24.2 mphOvercast
5:55 AM54.5 °F42.3 °F63 %29.40 in10.0 miSW (230°)15.0 mph31.1 mphOvercast
6:15 AM53.8 °F39.2 °F58 %29.42 in10.0 miWSW (250°)15.0 mph29.9 mphOvercast
6:35 AM52.3 °F33.1 °F48 %29.46 in10.0 miWest (260°)15.0 mph36.8 mphMostly Cloudy
6:55 AM50.7 °F32.0 °F49 %29.48 in10.0 miWSW (250°)16.1 mph24.2 mphMostly Cloudy
7:15 AM49.6 °F32.2 °F51 %29.50 in10.0 miWSW (250°)10.4 mph21.9 mphScattered Clouds
7:35 AM48.9 °F32.2 °F52 %29.52 in10.0 miWSW (240°)12.7 mph17.3 mphScattered Clouds
7:55 AM48.9 °F30.9 °F50 %29.55 in10.0 miWest (260°)16.1 mph26.5 mphScattered Clouds
8:15 AM48.6 °F27.1 °F43 %29.56 in10.0 miWSW (250°)19.6 mph34.5 mphClear
8:35 AM48.4 °F26.4 °F42 %29.59 in10.0 miWest (260°)24.2 mph29.9 mphClear
8:55 AM47.5 °F23.2 °F38 %29.61 in10.0 miWest (260°)13.8 mph29.9 mphClear
9:15 AM47.7 °F23.7 °F39 %29.62 in10.0 miWest (260°)18.4 mph25.3 mphClear
9:35 AM48.0 °F23.9 °F39 %29.64 in10.0 miWSW (250°)17.3 mph27.6 mphClear
9:55 AM47.3 °F22.8 °F38 %29.66 in10.0 miWSW (250°)20.7 mph29.9 mphClear
10:15 AM47.7 °F23.2 °F38 %29.67 in10.0 miWSW (250°)21.9 mph33.4 mphClear
10:35 AM48.0 °F22.8 °F37 %29.67 in10.0 miWSW (250°)17.3 mph24.2 mphClear
10:55 AM48.6 °F22.5 °F36 %29.68 in10.0 miWSW (240°)19.6 mph26.5 mphClear
11:15 AM48.7 °F21.7 °F35 %29.69 in10.0 miWSW (240°)16.1 mph26.5 mphClear
11:35 AM47.8 °F17.4 °F30 %29.69 in10.0 miWSW (250°)21.9 mph32.2 mphClear
11:55 AM48.4 °F17.6 °F29 %29.70 in10.0 miWest (260°)17.3 mph26.5 mphClear
12:15 PM49.3 °F18.7 °F30 %29.70 in10.0 miWSW (250°)16.1 mph23.0 mphClear
12:35 PM49.1 °F19.9 °F32 %29.70 in10.0 miSW (230°)19.6 mph28.8 mphScattered Clouds
12:55 PM48.6 °F16.9 °F28 %29.70 in10.0 miWest (260°)18.4 mph31.1 mphScattered Clouds
1:15 PM48.9 °F18.7 °F30 %29.70 in10.0 miWest (260°)18.4 mph29.9 mphClear
1:35 PM47.8 °F17.8 °F30 %29.70 in10.0 miWest (260°)13.8 mph36.8 mphScattered Clouds
1:55 PM48.2 °F16.3 °F28 %29.71 in10.0 miWSW (250°)16.1 mph26.5 mphScattered Clouds
2:15 PM48.6 °F16.7 °F28 %29.71 in10.0 miWest (260°)12.7 mph24.2 mphScattered Clouds
2:35 PM46.8 °F16.7 °F30 %29.73 in10.0 miWSW (250°)15.0 mph24.2 mphClear
2:55 PM47.1 °F18.0 °F31 %29.73 in10.0 miWSW (250°)15.0 mph23.0 mphScattered Clouds
3:15 PM45.5 °F17.6 °F33 %29.74 in10.0 miWest (260°)18.4 mph25.3 mphScattered Clouds
3:35 PM46.6 °F18.3 °F32 %29.76 in10.0 miWest (260°)12.7 mph21.9 mphMostly Cloudy
3:55 PM46.0 °F17.1 °F31 %29.76 in10.0 miWSW (250°)12.7 mph23.0 mphOvercast
4:15 PM45.3 °F14.9 °F29 %29.78 in10.0 miWest (270°)13.8 mph23.0 mphMostly Cloudy
4:35 PM44.6 °F15.4 °F31 %29.79 in10.0 miWest (260°)12.7 mph20.7 mphMostly Cloudy
4:55 PM43.7 °F15.6 °F32 %29.80 in10.0 miWest (260°)12.7 mph21.9 mphMostly Cloudy
5:15 PM43.5 °F16.0 °F33 %29.82 in10.0 miWest (270°)12.7 mph18.4 mphOvercast
5:35 PM43.0 °F16.5 °F34 %29.84 in10.0 miWest (260°)11.5 mph18.4 mphOvercast
5:55 PM42.3 °F14.9 °F33 %29.85 in10.0 miWest (260°)13.8 mph26.5 mphOvercast
6:15 PM41.9 °F14.9 °F34 %29.86 in10.0 miWest (260°)12.7 mph20.7 mphOvercast
6:35 PM40.5 °F13.5 °F33 %29.88 in10.0 miWSW (250°)11.5 mph19.6 mphScattered Clouds
6:55 PM39.9 °F12.9 °F33 %29.89 in10.0 miWSW (250°)11.5 mph18.4 mphClear
7:15 PM39.6 °F12.9 °F34 %29.90 in10.0 miWSW (250°)9.2 mph16.1 mphClear
7:35 PM38.7 °F12.9 °F35 %29.91 in10.0 miWSW (250°)6.9 mph16.1 mphClear
7:55 PM38.1 °F13.3 °F36 %29.91 in10.0 miWSW (240°)8.1 mphClear
8:15 PM37.8 °F13.3 °F37 %29.91 in10.0 miWSW (240°)5.8 mphClear
8:35 PM36.7 °F14.0 °F39 %29.91 in10.0 miWSW (240°)4.6 mphClear
8:55 PM36.0 °F14.2 °F41 %29.91 in10.0 miWSW (240°)3.5 mphClear
9:15 PM35.6 °F13.8 °F41 %29.92 in10.0 miSW (230°)3.5 mphClear
9:35 PM34.5 °F14.4 °F44 %29.92 in10.0 miSW (220°)3.5 mphClear
9:55 PM34.7 °F14.5 °F44 %29.93 in10.0 miSW (230°)3.5 mphClear
10:15 PM33.8 °F14.4 °F45 %29.93 in10.0 miCalmClear
10:35 PM32.2 °F15.6 °F51 %29.93 in10.0 miSW (220°)3.5 mphClear
10:55 PM32.2 °F14.9 °F49 %29.95 in10.0 miSW (220°)4.6 mphClear
11:15 PM34.7 °F14.9 °F44 %29.96 in10.0 miWSW (250°)6.9 mphClear
11:35 PM34.7 °F14.5 °F44 %29.96 in10.0 miWSW (250°)5.8 mphClear
11:55 PM33.8 °F14.2 °F45 %29.96 in10.0 miWSW (240°)3.5 mphClear
Hourly data recorded from KXSA, located miles away from Warsaw, Virginia







STORIES FROM OUR PARTNERS